Year,Month,Day,Hour,Minute,Value (Times are PST for temperature in C)
2011,10,09,00,00,9.70
2011,10,09,00,01,9.60
2011,10,09,00,02,9.60
2011,10,09,00,03,9.60
2011,10,09,00,04,9.60
2011,10,09,00,05,9.60
2011,10,09,00,06,9.50
2011,10,09,00,07,9.50
2011,10,09,00,08,9.40
2011,10,09,00,09,9.40
2011,10,09,00,10,9.40
2011,10,09,00,11,9.30
2011,10,09,00,12,9.30
2011,10,09,00,13,9.30
2011,10,09,00,14,9.30
2011,10,09,00,15,9.30
2011,10,09,00,16,9.30
2011,10,09,00,17,9.30
2011,10,09,00,18,9.30
2011,10,09,00,19,9.30
2011,10,09,00,20,9.20
2011,10,09,00,21,9.20
2011,10,09,00,22,9.20
2011,10,09,00,23,9.10
2011,10,09,00,24,9.10
2011,10,09,00,25,9.10
2011,10,09,00,26,9.00
2011,10,09,00,27,8.90
2011,10,09,00,28,8.90
2011,10,09,00,29,8.90
2011,10,09,00,30,8.90
2011,10,09,00,31,8.90
2011,10,09,00,32,8.90
2011,10,09,00,33,8.80
2011,10,09,00,34,8.80
2011,10,09,00,35,8.80
2011,10,09,00,36,8.80
2011,10,09,00,37,8.80
2011,10,09,00,38,8.80
2011,10,09,00,39,8.80
2011,10,09,00,40,8.70
2011,10,09,00,41,8.70
2011,10,09,00,42,8.70
2011,10,09,00,43,8.70
2011,10,09,00,44,8.70
2011,10,09,00,45,8.70
2011,10,09,00,46,8.70
2011,10,09,00,47,8.70
2011,10,09,00,48,8.70
2011,10,09,00,49,8.70
2011,10,09,00,50,8.70
2011,10,09,00,51,8.70
2011,10,09,00,52,8.70
2011,10,09,00,53,8.70
2011,10,09,00,54,8.70
2011,10,09,00,55,8.60
2011,10,09,00,56,8.60
2011,10,09,00,57,8.60
2011,10,09,00,58,8.50
2011,10,09,00,59,8.50
2011,10,09,01,00,8.50
2011,10,09,01,01,8.40
2011,10,09,01,02,8.40
2011,10,09,01,03,8.40
2011,10,09,01,04,8.40
2011,10,09,01,05,8.30
2011,10,09,01,06,8.30
2011,10,09,01,07,8.30
2011,10,09,01,08,8.30
2011,10,09,01,09,8.30
2011,10,09,01,10,8.30
2011,10,09,01,11,8.20
2011,10,09,01,12,8.20
2011,10,09,01,13,8.20
2011,10,09,01,14,8.20
2011,10,09,01,15,8.20
2011,10,09,01,16,8.30
2011,10,09,01,17,8.30
2011,10,09,01,18,8.40
2011,10,09,01,19,8.40
2011,10,09,01,20,8.40
2011,10,09,01,21,8.30
2011,10,09,01,22,8.30
2011,10,09,01,23,8.30
2011,10,09,01,24,8.20
2011,10,09,01,25,8.20
2011,10,09,01,26,8.20
2011,10,09,01,27,8.20
2011,10,09,01,28,8.20
2011,10,09,01,29,8.20
2011,10,09,01,30,8.20
2011,10,09,01,31,8.20
2011,10,09,01,32,8.20
2011,10,09,01,33,8.20
2011,10,09,01,34,8.20
2011,10,09,01,35,8.20
2011,10,09,01,36,8.20
2011,10,09,01,37,8.10
2011,10,09,01,38,8.10
2011,10,09,01,39,8.10
2011,10,09,01,40,8.00
2011,10,09,01,41,8.00
2011,10,09,01,42,7.90
2011,10,09,01,43,7.90
2011,10,09,01,44,7.90
2011,10,09,01,45,7.80
2011,10,09,01,46,7.80
2011,10,09,01,47,7.80
2011,10,09,01,48,7.70
2011,10,09,01,49,7.70
2011,10,09,01,50,7.70
2011,10,09,01,51,7.70
2011,10,09,01,52,7.70
2011,10,09,01,53,7.60
2011,10,09,01,54,7.60
2011,10,09,01,55,7.60
2011,10,09,01,56,7.60
2011,10,09,01,57,7.60
2011,10,09,01,58,7.60
2011,10,09,01,59,7.50
2011,10,09,02,00,7.50
2011,10,09,02,01,7.40
2011,10,09,02,02,7.40
2011,10,09,02,03,7.40
2011,10,09,02,04,7.30
2011,10,09,02,05,7.30
2011,10,09,02,06,7.30
2011,10,09,02,07,7.30
2011,10,09,02,08,7.30
2011,10,09,02,09,7.30
2011,10,09,02,10,7.30
2011,10,09,02,11,7.30
2011,10,09,02,12,7.30
2011,10,09,02,13,7.30
2011,10,09,02,14,7.30
2011,10,09,02,15,7.30
2011,10,09,02,16,7.30
2011,10,09,02,17,7.30
2011,10,09,02,18,7.20
2011,10,09,02,19,7.20
2011,10,09,02,20,7.30
2011,10,09,02,21,7.30
2011,10,09,02,22,7.30
2011,10,09,02,23,7.30
2011,10,09,02,24,7.30
2011,10,09,02,25,7.30
2011,10,09,02,26,7.30
2011,10,09,02,27,7.30
2011,10,09,02,28,7.40
2011,10,09,02,29,7.50
2011,10,09,02,30,7.50
2011,10,09,02,31,7.50
2011,10,09,02,32,7.50
2011,10,09,02,33,7.50
2011,10,09,02,34,7.50
2011,10,09,02,35,7.50
2011,10,09,02,36,7.50
2011,10,09,02,37,7.50
2011,10,09,02,38,7.50
2011,10,09,02,39,7.60
2011,10,09,02,40,7.60
2011,10,09,02,41,7.70
2011,10,09,02,42,7.70
2011,10,09,02,43,7.70
2011,10,09,02,44,7.70
2011,10,09,02,45,7.70
2011,10,09,02,46,7.70
2011,10,09,02,47,7.70
2011,10,09,02,48,7.70
2011,10,09,02,49,7.70
2011,10,09,02,50,7.70
2011,10,09,02,51,7.60
2011,10,09,02,52,7.50
2011,10,09,02,53,7.50
2011,10,09,02,54,7.40
2011,10,09,02,55,7.30
2011,10,09,02,56,7.20
2011,10,09,02,57,7.20
2011,10,09,02,58,7.10
2011,10,09,02,59,7.00
2011,10,09,03,00,6.90
2011,10,09,03,01,6.80
2011,10,09,03,02,6.80
2011,10,09,03,03,6.70
2011,10,09,03,04,6.70
2011,10,09,03,05,6.70
2011,10,09,03,06,6.70
2011,10,09,03,07,6.70
2011,10,09,03,08,6.70
2011,10,09,03,09,6.80
2011,10,09,03,10,6.80
2011,10,09,03,11,6.80
2011,10,09,03,12,6.80
2011,10,09,03,13,6.80
2011,10,09,03,14,6.80
2011,10,09,03,15,6.80
2011,10,09,03,16,6.80
2011,10,09,03,17,6.80
2011,10,09,03,18,6.80
2011,10,09,03,19,6.80
2011,10,09,03,20,6.70
2011,10,09,03,21,6.70
2011,10,09,03,22,6.70
2011,10,09,03,23,6.70
2011,10,09,03,24,6.60
2011,10,09,03,25,6.60
2011,10,09,03,26,6.60
2011,10,09,03,27,6.60
2011,10,09,03,28,6.60
2011,10,09,03,29,6.60
2011,10,09,03,30,6.60
2011,10,09,03,31,6.60
2011,10,09,03,32,6.60
2011,10,09,03,33,6.60
2011,10,09,03,34,6.50
2011,10,09,03,35,6.50
2011,10,09,03,36,6.50
2011,10,09,03,37,6.50
2011,10,09,03,38,6.50
2011,10,09,03,39,6.40
2011,10,09,03,40,6.40
2011,10,09,03,41,6.40
2011,10,09,03,42,6.40
2011,10,09,03,43,6.30
2011,10,09,03,44,6.30
2011,10,09,03,45,6.30
2011,10,09,03,46,6.30
2011,10,09,03,47,6.20
2011,10,09,03,48,6.20
2011,10,09,03,49,6.20
2011,10,09,03,50,6.20
2011,10,09,03,51,6.20
2011,10,09,03,52,6.20
2011,10,09,03,53,6.20
2011,10,09,03,54,6.20
2011,10,09,03,55,6.20
2011,10,09,03,56,6.20
2011,10,09,03,57,6.20
2011,10,09,03,58,6.20
2011,10,09,03,59,6.20
2011,10,09,04,00,6.20
2011,10,09,04,01,6.20
2011,10,09,04,02,6.20
2011,10,09,04,03,6.20
2011,10,09,04,04,6.20
2011,10,09,04,05,6.20
2011,10,09,04,06,6.10
2011,10,09,04,07,6.10
2011,10,09,04,08,6.10
2011,10,09,04,09,6.00
2011,10,09,04,10,6.00
2011,10,09,04,11,6.00
2011,10,09,04,12,6.00
2011,10,09,04,13,6.00
2011,10,09,04,14,6.00
2011,10,09,04,15,6.00
2011,10,09,04,16,6.00
2011,10,09,04,17,6.00
2011,10,09,04,18,5.90
2011,10,09,04,19,5.90
2011,10,09,04,20,5.90
2011,10,09,04,21,5.90
2011,10,09,04,22,5.90
2011,10,09,04,23,5.90
2011,10,09,04,24,5.90
2011,10,09,04,25,5.90
2011,10,09,04,26,5.90
2011,10,09,04,27,5.80
2011,10,09,04,28,5.80
2011,10,09,04,29,5.80
2011,10,09,04,30,5.80
2011,10,09,04,31,5.80
2011,10,09,04,32,5.80
2011,10,09,04,33,5.80
2011,10,09,04,34,5.80
2011,10,09,04,35,5.80
2011,10,09,04,36,5.80
2011,10,09,04,37,5.80
2011,10,09,04,38,5.80
2011,10,09,04,39,5.80
2011,10,09,04,40,5.80
2011,10,09,04,41,5.80
2011,10,09,04,42,5.90
2011,10,09,04,43,5.90
2011,10,09,04,44,5.90
2011,10,09,04,45,5.90
2011,10,09,04,46,5.90
2011,10,09,04,47,5.90
2011,10,09,04,48,5.90
2011,10,09,04,49,5.80
2011,10,09,04,50,5.80
2011,10,09,04,51,5.80
2011,10,09,04,52,5.80
2011,10,09,04,53,5.70
2011,10,09,04,54,5.70
2011,10,09,04,55,5.70
2011,10,09,04,56,5.70
2011,10,09,04,57,5.70
2011,10,09,04,58,5.70
2011,10,09,04,59,5.70
2011,10,09,05,00,5.70
2011,10,09,05,01,5.70
2011,10,09,05,02,5.70
2011,10,09,05,03,5.70
2011,10,09,05,04,5.70
2011,10,09,05,05,5.70
2011,10,09,05,06,5.70
2011,10,09,05,07,5.70
2011,10,09,05,08,5.70
2011,10,09,05,09,5.80
2011,10,09,05,10,5.90
2011,10,09,05,11,5.90
2011,10,09,05,12,6.00
2011,10,09,05,13,6.00
2011,10,09,05,14,6.00
2011,10,09,05,15,6.00
2011,10,09,05,16,5.90
2011,10,09,05,17,5.90
2011,10,09,05,18,5.90
2011,10,09,05,19,5.80
2011,10,09,05,20,5.80
2011,10,09,05,21,5.80
2011,10,09,05,22,5.80
2011,10,09,05,23,5.80
2011,10,09,05,24,5.80
2011,10,09,05,25,5.80
2011,10,09,05,26,5.80
2011,10,09,05,27,5.80
2011,10,09,05,28,5.80
2011,10,09,05,29,5.90
2011,10,09,05,30,5.90
2011,10,09,05,31,6.00
2011,10,09,05,32,6.10
2011,10,09,05,33,6.20
2011,10,09,05,34,6.20
2011,10,09,05,35,6.20
2011,10,09,05,36,6.20
2011,10,09,05,37,6.30
2011,10,09,05,38,6.30
2011,10,09,05,39,6.30
2011,10,09,05,40,6.30
2011,10,09,05,41,6.30
2011,10,09,05,42,6.20
2011,10,09,05,43,6.20
2011,10,09,05,44,6.20
2011,10,09,05,45,6.20
2011,10,09,05,46,6.20
2011,10,09,05,47,6.10
2011,10,09,05,48,6.00
2011,10,09,05,49,6.00
2011,10,09,05,50,5.90
2011,10,09,05,51,5.90
2011,10,09,05,52,5.90
2011,10,09,05,53,5.80
2011,10,09,05,54,5.80
2011,10,09,05,55,5.80
2011,10,09,05,56,5.70
2011,10,09,05,57,5.70
2011,10,09,05,58,5.70
2011,10,09,05,59,5.60
2011,10,09,06,00,5.60
2011,10,09,06,01,5.60
2011,10,09,06,02,5.60
2011,10,09,06,03,5.60
2011,10,09,06,04,5.60
2011,10,09,06,05,5.60
2011,10,09,06,06,5.60
2011,10,09,06,07,5.50
2011,10,09,06,08,5.50
2011,10,09,06,09,5.50
2011,10,09,06,10,5.50
2011,10,09,06,11,5.50
2011,10,09,06,12,5.40
2011,10,09,06,13,5.40
2011,10,09,06,14,5.40
2011,10,09,06,15,5.40
2011,10,09,06,16,5.40
2011,10,09,06,17,5.40
2011,10,09,06,18,5.40
2011,10,09,06,19,5.40
2011,10,09,06,20,5.30
2011,10,09,06,21,5.30
2011,10,09,06,22,5.30
2011,10,09,06,23,5.30
2011,10,09,06,24,5.30
2011,10,09,06,25,5.20
2011,10,09,06,26,5.20
2011,10,09,06,27,5.20
2011,10,09,06,28,5.20
2011,10,09,06,29,5.20
2011,10,09,06,30,5.30
2011,10,09,06,31,5.30
2011,10,09,06,32,5.30
2011,10,09,06,33,5.40
2011,10,09,06,34,5.40
2011,10,09,06,35,5.40
2011,10,09,06,36,5.50
2011,10,09,06,37,5.50
2011,10,09,06,38,5.50
2011,10,09,06,39,5.50
2011,10,09,06,40,5.50
2011,10,09,06,41,5.50
2011,10,09,06,42,5.50
2011,10,09,06,43,5.50
2011,10,09,06,44,5.50
2011,10,09,06,45,5.50
2011,10,09,06,46,5.50
2011,10,09,06,47,5.50
2011,10,09,06,48,5.50
2011,10,09,06,49,5.50
2011,10,09,06,50,5.50
2011,10,09,06,51,5.50
2011,10,09,06,52,5.50
2011,10,09,06,53,5.50
2011,10,09,06,54,5.50
2011,10,09,06,55,5.50
2011,10,09,06,56,5.60
2011,10,09,06,57,5.50
2011,10,09,06,58,5.50
2011,10,09,06,59,5.50
2011,10,09,07,00,5.50
2011,10,09,07,01,5.50
2011,10,09,07,02,5.50
2011,10,09,07,03,5.50
2011,10,09,07,04,5.50
2011,10,09,07,05,5.50
2011,10,09,07,06,5.50
2011,10,09,07,07,5.50
2011,10,09,07,08,5.50
2011,10,09,07,09,5.50
2011,10,09,07,10,5.50
2011,10,09,07,11,5.50
2011,10,09,07,12,5.50
2011,10,09,07,13,5.50
2011,10,09,07,14,5.50
2011,10,09,07,15,5.50
2011,10,09,07,16,5.60
2011,10,09,07,17,5.60
2011,10,09,07,18,5.70
2011,10,09,07,19,5.70
2011,10,09,07,20,5.70
2011,10,09,07,21,5.70
2011,10,09,07,22,5.80
2011,10,09,07,23,5.80
2011,10,09,07,24,5.80
2011,10,09,07,25,5.80
2011,10,09,07,26,5.80
2011,10,09,07,27,5.90
2011,10,09,07,28,5.90
2011,10,09,07,29,5.90
2011,10,09,07,30,5.80
2011,10,09,07,31,5.80
2011,10,09,07,32,5.80
2011,10,09,07,33,5.80
2011,10,09,07,34,5.90
2011,10,09,07,35,5.90
2011,10,09,07,36,5.90
2011,10,09,07,37,6.00
2011,10,09,07,38,6.00
2011,10,09,07,39,6.10
2011,10,09,07,40,6.10
2011,10,09,07,41,6.10
2011,10,09,07,42,6.20
2011,10,09,07,43,6.20
2011,10,09,07,44,6.20
2011,10,09,07,45,6.20
2011,10,09,07,46,6.20
2011,10,09,07,47,6.20
2011,10,09,07,48,6.30
2011,10,09,07,49,6.30
2011,10,09,07,50,6.30
2011,10,09,07,51,6.30
2011,10,09,07,52,6.30
2011,10,09,07,53,6.30
2011,10,09,07,54,6.20
2011,10,09,07,55,6.20
2011,10,09,07,56,6.20
2011,10,09,07,57,6.20
2011,10,09,07,58,6.20
2011,10,09,07,59,6.20
2011,10,09,08,00,6.20
2011,10,09,08,01,6.20
2011,10,09,08,02,6.20
2011,10,09,08,03,6.20
2011,10,09,08,04,6.20
2011,10,09,08,05,6.20
2011,10,09,08,06,6.10
2011,10,09,08,07,6.10
2011,10,09,08,08,6.10
2011,10,09,08,09,6.10
2011,10,09,08,10,6.10
2011,10,09,08,11,6.10
2011,10,09,08,12,6.10
2011,10,09,08,13,6.10
2011,10,09,08,14,6.10
2011,10,09,08,15,6.10
2011,10,09,08,16,6.10
2011,10,09,08,17,6.10
2011,10,09,08,18,6.10
2011,10,09,08,19,6.10
2011,10,09,08,20,6.10
2011,10,09,08,21,6.10
2011,10,09,08,22,6.10
2011,10,09,08,23,6.10
2011,10,09,08,24,6.10
2011,10,09,08,25,6.10
2011,10,09,08,26,6.10
2011,10,09,08,27,6.20
2011,10,09,08,28,6.20
2011,10,09,08,29,6.20
2011,10,09,08,30,6.20
2011,10,09,08,31,6.30
2011,10,09,08,32,6.30
2011,10,09,08,33,6.30
2011,10,09,08,34,6.40
2011,10,09,08,35,6.40
2011,10,09,08,36,6.40
2011,10,09,08,37,6.50
2011,10,09,08,38,6.50
2011,10,09,08,39,6.60
2011,10,09,08,40,6.60
2011,10,09,08,41,6.60
2011,10,09,08,42,6.60
2011,10,09,08,43,6.70
2011,10,09,08,44,6.70
2011,10,09,08,45,6.70
2011,10,09,08,46,6.80
2011,10,09,08,47,6.80
2011,10,09,08,48,6.80
2011,10,09,08,49,6.80
2011,10,09,08,50,6.90
2011,10,09,08,51,6.90
2011,10,09,08,52,6.90
2011,10,09,08,53,7.00
2011,10,09,08,54,7.10
2011,10,09,08,55,7.10
2011,10,09,08,56,7.10
2011,10,09,08,57,7.20
2011,10,09,08,58,7.20
2011,10,09,08,59,7.20
2011,10,09,09,00,7.20
2011,10,09,09,01,7.20
2011,10,09,09,02,7.20
2011,10,09,09,03,7.20
2011,10,09,09,04,7.20
2011,10,09,09,05,7.20
2011,10,09,09,06,7.30
2011,10,09,09,07,7.30
2011,10,09,09,08,7.30
2011,10,09,09,09,7.30
2011,10,09,09,10,7.30
2011,10,09,09,11,7.30
2011,10,09,09,12,7.30
2011,10,09,09,13,7.30
2011,10,09,09,14,7.30
2011,10,09,09,15,7.40
2011,10,09,09,16,7.40
2011,10,09,09,17,7.40
2011,10,09,09,18,7.40
2011,10,09,09,19,7.40
2011,10,09,09,20,7.40
2011,10,09,09,21,7.40
2011,10,09,09,22,7.40
2011,10,09,09,23,7.50
2011,10,09,09,24,7.50
2011,10,09,09,25,7.50
2011,10,09,09,26,7.50
2011,10,09,09,27,7.60
2011,10,09,09,28,7.60
2011,10,09,09,29,7.60
2011,10,09,09,30,7.60
2011,10,09,09,31,7.60
2011,10,09,09,32,7.70
2011,10,09,09,33,7.70
2011,10,09,09,34,7.70
2011,10,09,09,35,7.70
2011,10,09,09,36,7.80
2011,10,09,09,37,7.80
2011,10,09,09,38,7.80
2011,10,09,09,39,7.90
2011,10,09,09,40,7.90
2011,10,09,09,41,8.00
2011,10,09,09,42,8.00
2011,10,09,09,43,8.10
2011,10,09,09,44,8.10
2011,10,09,09,45,8.20
2011,10,09,09,46,8.20
2011,10,09,09,47,8.30
2011,10,09,09,48,8.40
2011,10,09,09,49,8.50
2011,10,09,09,50,8.50
2011,10,09,09,51,8.60
2011,10,09,09,52,8.70
2011,10,09,09,53,8.70
2011,10,09,09,54,8.80
2011,10,09,09,55,8.90
2011,10,09,09,56,9.00
2011,10,09,09,57,9.00
2011,10,09,09,58,9.10
2011,10,09,09,59,9.20
2011,10,09,10,00,9.20
2011,10,09,10,01,9.30
2011,10,09,10,02,9.30
2011,10,09,10,03,9.40
2011,10,09,10,04,9.40
2011,10,09,10,05,9.50
2011,10,09,10,06,9.60
2011,10,09,10,07,9.60
2011,10,09,10,08,9.70
2011,10,09,10,09,9.70
2011,10,09,10,10,9.80
2011,10,09,10,11,9.90
2011,10,09,10,12,10.10
2011,10,09,10,13,10.20
2011,10,09,10,14,10.30
2011,10,09,10,15,10.40
2011,10,09,10,16,10.50
2011,10,09,10,17,10.60
2011,10,09,10,18,10.70
2011,10,09,10,19,10.80
2011,10,09,10,20,10.90
2011,10,09,10,21,11.10
2011,10,09,10,22,11.20
2011,10,09,10,23,11.30
2011,10,09,10,24,11.40
2011,10,09,10,25,11.40
2011,10,09,10,26,11.50
2011,10,09,10,27,11.50
2011,10,09,10,28,11.60
2011,10,09,10,29,11.60
2011,10,09,10,30,11.70
2011,10,09,10,31,11.70
2011,10,09,10,32,11.70
2011,10,09,10,33,11.70
2011,10,09,10,34,11.80
2011,10,09,10,35,11.80
2011,10,09,10,36,11.80
2011,10,09,10,37,11.90
2011,10,09,10,38,11.90
2011,10,09,10,39,12.00
2011,10,09,10,40,12.00
2011,10,09,10,41,12.10
2011,10,09,10,42,12.10
2011,10,09,10,43,12.10
2011,10,09,10,44,12.20
2011,10,09,10,45,12.20
2011,10,09,10,46,12.20
2011,10,09,10,47,12.20
2011,10,09,10,48,12.30
2011,10,09,10,49,12.30
2011,10,09,10,50,12.40
2011,10,09,10,51,12.40
2011,10,09,10,52,12.50
2011,10,09,10,53,12.60
2011,10,09,10,54,12.70
2011,10,09,10,55,12.70
2011,10,09,10,56,12.70
2011,10,09,10,57,12.70
2011,10,09,10,58,12.60
2011,10,09,10,59,12.60
2011,10,09,11,00,12.50
2011,10,09,11,01,12.40
2011,10,09,11,02,12.30
2011,10,09,11,03,12.30
2011,10,09,11,04,12.30
2011,10,09,11,05,12.20
2011,10,09,11,06,12.20
2011,10,09,11,07,12.20
2011,10,09,11,08,12.10
2011,10,09,11,09,12.10
2011,10,09,11,10,12.00
2011,10,09,11,11,12.00
2011,10,09,11,12,11.90
2011,10,09,11,13,11.90
2011,10,09,11,14,11.90
2011,10,09,11,15,11.90
2011,10,09,11,16,12.00
2011,10,09,11,17,12.00
2011,10,09,11,18,12.00
2011,10,09,11,19,12.00
2011,10,09,11,20,12.00
2011,10,09,11,21,12.10
2011,10,09,11,22,12.10
2011,10,09,11,23,12.10
2011,10,09,11,24,12.10
2011,10,09,11,25,12.10
2011,10,09,11,26,12.10
2011,10,09,11,27,12.10
2011,10,09,11,28,12.10
2011,10,09,11,29,12.10
2011,10,09,11,30,12.10
2011,10,09,11,31,12.10
2011,10,09,11,32,12.20
2011,10,09,11,33,12.20
2011,10,09,11,34,12.20
2011,10,09,11,35,12.20
2011,10,09,11,36,12.20
2011,10,09,11,37,12.20
2011,10,09,11,38,12.30
2011,10,09,11,39,12.30
2011,10,09,11,40,12.30
2011,10,09,11,41,12.30
2011,10,09,11,42,12.30
2011,10,09,11,43,12.30
2011,10,09,11,44,12.40
2011,10,09,11,45,12.40
2011,10,09,11,46,12.50
2011,10,09,11,47,12.60
2011,10,09,11,48,12.70
2011,10,09,11,49,12.90
2011,10,09,11,50,13.00
2011,10,09,11,51,12.90
2011,10,09,11,52,12.90
2011,10,09,11,53,12.80
2011,10,09,11,54,12.80
2011,10,09,11,55,12.90
2011,10,09,11,56,12.90
2011,10,09,11,57,12.90
2011,10,09,11,58,12.80
2011,10,09,11,59,12.80
2011,10,09,12,00,12.70
2011,10,09,12,01,12.70
2011,10,09,12,02,12.70
2011,10,09,12,03,12.70
2011,10,09,12,04,12.80
2011,10,09,12,05,12.80
2011,10,09,12,06,12.80
2011,10,09,12,07,12.90
2011,10,09,12,08,12.90
2011,10,09,12,09,13.00
2011,10,09,12,10,13.00
2011,10,09,12,11,13.10
2011,10,09,12,12,13.20
2011,10,09,12,13,13.10
2011,10,09,12,14,13.10
2011,10,09,12,15,13.00
2011,10,09,12,16,12.90
2011,10,09,12,17,12.90
2011,10,09,12,18,12.90
2011,10,09,12,19,12.80
2011,10,09,12,20,12.80
2011,10,09,12,21,12.80
2011,10,09,12,22,12.80
2011,10,09,12,23,12.90
2011,10,09,12,24,12.90
2011,10,09,12,25,12.90
2011,10,09,12,26,13.00
2011,10,09,12,27,13.00
2011,10,09,12,28,13.00
2011,10,09,12,29,13.00
2011,10,09,12,30,13.10
2011,10,09,12,31,13.00
2011,10,09,12,32,12.90
2011,10,09,12,33,12.90
2011,10,09,12,34,12.90
2011,10,09,12,35,12.80
2011,10,09,12,36,12.80
2011,10,09,12,37,12.70
2011,10,09,12,38,12.60
2011,10,09,12,39,12.60
2011,10,09,12,40,12.60
2011,10,09,12,41,12.50
2011,10,09,12,42,12.50
2011,10,09,12,43,12.50
2011,10,09,12,44,12.50
2011,10,09,12,45,12.50
2011,10,09,12,46,12.50
2011,10,09,12,47,12.60
2011,10,09,12,48,12.60
2011,10,09,12,49,12.60
2011,10,09,12,50,12.60
2011,10,09,12,51,12.70
2011,10,09,12,52,12.70
2011,10,09,12,53,12.70
2011,10,09,12,54,12.70
2011,10,09,12,55,12.80
2011,10,09,12,56,12.80
2011,10,09,12,57,12.80
2011,10,09,12,58,12.80
2011,10,09,12,59,12.80
2011,10,09,13,00,12.90
2011,10,09,13,01,12.90
2011,10,09,13,02,12.90
2011,10,09,13,03,12.90
2011,10,09,13,04,12.90
2011,10,09,13,05,13.00
2011,10,09,13,06,12.90
2011,10,09,13,07,12.90
2011,10,09,13,08,12.90
2011,10,09,13,09,12.90
2011,10,09,13,10,12.90
2011,10,09,13,11,12.90
2011,10,09,13,12,12.90
2011,10,09,13,13,12.90
2011,10,09,13,14,12.90
2011,10,09,13,15,12.90
2011,10,09,13,16,12.90
2011,10,09,13,17,12.90
2011,10,09,13,18,12.90
2011,10,09,13,19,13.00
2011,10,09,13,20,13.00
2011,10,09,13,21,12.90
2011,10,09,13,22,12.90
2011,10,09,13,23,12.90
2011,10,09,13,24,12.80
2011,10,09,13,25,12.70
2011,10,09,13,26,12.70
2011,10,09,13,27,12.80
2011,10,09,13,28,12.80
2011,10,09,13,29,12.80
2011,10,09,13,30,12.80
2011,10,09,13,31,12.80
2011,10,09,13,32,12.80
2011,10,09,13,33,12.80
2011,10,09,13,34,12.80
2011,10,09,13,35,12.80
2011,10,09,13,36,12.70
2011,10,09,13,37,12.80
2011,10,09,13,38,12.80
2011,10,09,13,39,12.80
2011,10,09,13,40,12.80
2011,10,09,13,41,12.80
2011,10,09,13,42,12.70
2011,10,09,13,43,12.70
2011,10,09,13,44,12.70
2011,10,09,13,45,12.70
2011,10,09,13,46,12.80
2011,10,09,13,47,12.80
2011,10,09,13,48,12.80
2011,10,09,13,49,12.80
2011,10,09,13,50,12.80
2011,10,09,13,51,12.80
2011,10,09,13,52,12.80
2011,10,09,13,53,12.80
2011,10,09,13,54,12.80
2011,10,09,13,55,12.80
2011,10,09,13,56,12.80
2011,10,09,13,57,12.80
2011,10,09,13,58,12.80
2011,10,09,13,59,12.80
2011,10,09,14,00,12.90
2011,10,09,14,01,12.90
2011,10,09,14,02,12.90
2011,10,09,14,03,12.90
2011,10,09,14,04,12.90
2011,10,09,14,05,12.80
2011,10,09,14,06,12.80
2011,10,09,14,07,12.80
2011,10,09,14,08,12.80
2011,10,09,14,09,12.80
2011,10,09,14,10,12.90
2011,10,09,14,11,12.90
2011,10,09,14,12,12.90
2011,10,09,14,13,13.00
2011,10,09,14,14,13.00
2011,10,09,14,15,13.00
2011,10,09,14,16,13.10
2011,10,09,14,17,13.10
2011,10,09,14,18,13.10
2011,10,09,14,19,13.10
2011,10,09,14,20,13.10
2011,10,09,14,21,13.00
2011,10,09,14,22,13.00
2011,10,09,14,23,12.90
2011,10,09,14,24,12.90
2011,10,09,14,25,12.90
2011,10,09,14,26,12.80
2011,10,09,14,27,12.80
2011,10,09,14,28,12.80
2011,10,09,14,29,12.70
2011,10,09,14,30,12.70
2011,10,09,14,31,12.70
2011,10,09,14,32,12.70
2011,10,09,14,33,12.70
2011,10,09,14,34,12.80
2011,10,09,14,35,12.80
2011,10,09,14,36,12.80
2011,10,09,14,37,12.90
2011,10,09,14,38,12.90
2011,10,09,14,39,12.90
2011,10,09,14,40,13.00
2011,10,09,14,41,13.00
2011,10,09,14,42,13.00
2011,10,09,14,43,13.00
2011,10,09,14,44,13.00
2011,10,09,14,45,13.00
2011,10,09,14,46,12.90
2011,10,09,14,47,12.90
2011,10,09,14,48,12.90
2011,10,09,14,49,12.90
2011,10,09,14,50,12.90
2011,10,09,14,51,12.90
2011,10,09,14,52,12.90
2011,10,09,14,53,12.90
2011,10,09,14,54,13.00
2011,10,09,14,55,13.00
2011,10,09,14,56,13.00
2011,10,09,14,57,13.00
2011,10,09,14,58,13.00
2011,10,09,14,59,13.00
2011,10,09,15,00,12.90
2011,10,09,15,01,12.90
2011,10,09,15,02,12.90
2011,10,09,15,03,12.90
2011,10,09,15,04,12.90
2011,10,09,15,05,13.00
2011,10,09,15,06,13.00
2011,10,09,15,07,13.00
2011,10,09,15,08,13.00
2011,10,09,15,09,13.10
2011,10,09,15,10,13.10
2011,10,09,15,11,13.10
2011,10,09,15,12,13.10
2011,10,09,15,13,13.20
2011,10,09,15,14,13.20
2011,10,09,15,15,13.20
2011,10,09,15,16,13.20
2011,10,09,15,17,13.30
2011,10,09,15,18,13.40
2011,10,09,15,19,13.40
2011,10,09,15,20,13.50
2011,10,09,15,21,13.50
2011,10,09,15,22,13.60
2011,10,09,15,23,13.70
2011,10,09,15,24,13.80
2011,10,09,15,25,13.70
2011,10,09,15,26,13.60
2011,10,09,15,27,13.50
2011,10,09,15,28,13.40
2011,10,09,15,29,13.30
2011,10,09,15,30,13.20
2011,10,09,15,31,13.20
2011,10,09,15,32,13.30
2011,10,09,15,33,13.30
2011,10,09,15,34,13.30
2011,10,09,15,35,13.30
2011,10,09,15,36,13.30
2011,10,09,15,37,13.30
2011,10,09,15,38,13.30
2011,10,09,15,39,13.30
2011,10,09,15,40,13.30
2011,10,09,15,41,13.30
2011,10,09,15,42,13.30
2011,10,09,15,43,13.30
2011,10,09,15,44,13.30
2011,10,09,15,45,13.40
2011,10,09,15,46,13.50
2011,10,09,15,47,13.60
2011,10,09,15,48,13.60
2011,10,09,15,49,13.60
2011,10,09,15,50,13.70
2011,10,09,15,51,13.80
2011,10,09,15,52,13.90
2011,10,09,15,53,14.00
2011,10,09,15,54,14.00
2011,10,09,15,55,14.10
2011,10,09,15,56,14.00
2011,10,09,15,57,13.90
2011,10,09,15,58,13.80
2011,10,09,15,59,13.70
2011,10,09,16,00,13.60
2011,10,09,16,01,13.50
2011,10,09,16,02,13.40
2011,10,09,16,03,13.30
2011,10,09,16,04,13.20
2011,10,09,16,05,13.20
2011,10,09,16,06,13.20
2011,10,09,16,07,13.20
2011,10,09,16,08,13.10
2011,10,09,16,09,13.10
2011,10,09,16,10,13.10
2011,10,09,16,11,13.10
2011,10,09,16,12,13.10
2011,10,09,16,13,13.10
2011,10,09,16,14,13.10
2011,10,09,16,15,13.10
2011,10,09,16,16,13.00
2011,10,09,16,17,13.00
2011,10,09,16,18,12.90
2011,10,09,16,19,12.90
2011,10,09,16,20,12.90
2011,10,09,16,21,12.80
2011,10,09,16,22,12.80
2011,10,09,16,23,12.70
2011,10,09,16,24,12.70
2011,10,09,16,25,12.70
2011,10,09,16,26,12.60
2011,10,09,16,27,12.60
2011,10,09,16,28,12.50
2011,10,09,16,29,12.50
2011,10,09,16,30,12.40
2011,10,09,16,31,12.40
2011,10,09,16,32,12.40
2011,10,09,16,33,12.40
2011,10,09,16,34,12.40
2011,10,09,16,35,12.40
2011,10,09,16,36,12.40
2011,10,09,16,37,12.40
2011,10,09,16,38,12.40
2011,10,09,16,39,12.50
2011,10,09,16,40,12.50
2011,10,09,16,41,12.50
2011,10,09,16,42,12.60
2011,10,09,16,43,12.60
2011,10,09,16,44,12.60
2011,10,09,16,45,12.70
2011,10,09,16,46,12.70
2011,10,09,16,47,12.70
2011,10,09,16,48,12.70
2011,10,09,16,49,12.70
2011,10,09,16,50,12.60
2011,10,09,16,51,12.50
2011,10,09,16,52,12.40
2011,10,09,16,53,12.30
2011,10,09,16,54,12.30
2011,10,09,16,55,12.20
2011,10,09,16,56,12.20
2011,10,09,16,57,12.20
2011,10,09,16,58,12.10
2011,10,09,16,59,12.10
2011,10,09,17,00,12.00
2011,10,09,17,01,12.00
2011,10,09,17,02,11.90
2011,10,09,17,03,11.90
2011,10,09,17,04,11.90
2011,10,09,17,05,11.90
2011,10,09,17,06,11.90
2011,10,09,17,07,11.90
2011,10,09,17,08,11.90
2011,10,09,17,09,11.80
2011,10,09,17,10,11.80
2011,10,09,17,11,11.80
2011,10,09,17,12,11.80
2011,10,09,17,13,11.80
2011,10,09,17,14,11.80
2011,10,09,17,15,11.80
2011,10,09,17,16,11.80
2011,10,09,17,17,11.80
2011,10,09,17,18,11.80
2011,10,09,17,19,11.80
2011,10,09,17,20,11.80
2011,10,09,17,21,11.80
2011,10,09,17,22,11.80
2011,10,09,17,23,11.80
2011,10,09,17,24,11.80
2011,10,09,17,25,11.80
2011,10,09,17,26,11.80
2011,10,09,17,27,11.80
2011,10,09,17,28,11.80
2011,10,09,17,29,11.80
2011,10,09,17,30,11.80
2011,10,09,17,31,11.80
2011,10,09,17,32,11.80
2011,10,09,17,33,11.90
2011,10,09,17,34,11.90
2011,10,09,17,35,11.90
2011,10,09,17,36,11.90
2011,10,09,17,37,11.90
2011,10,09,17,38,11.90
2011,10,09,17,39,11.80
2011,10,09,17,40,11.80
2011,10,09,17,41,11.80
2011,10,09,17,42,11.80
2011,10,09,17,43,11.80
2011,10,09,17,44,11.70
2011,10,09,17,45,11.70
2011,10,09,17,46,11.70